This demonstration page uses our WeatherBlox Daily Observations layout. Learn more.

Left ArrowRight Arrow

44.8408, -93.29828

Hourly Observations for August 13, 2019

Temp ( °F °C ) Dew Point ( °F °C ) Humidity (%) Winds ( mph kmh ) Pressure ( in mb ) Visibility ( mi km ) Precip ( " mm )
12:42 am 00:42 Cloudy 72 22.2 68 20 87 87 N 6 9 29.82 1010 7 11 0.00 0.00
12:53 am 00:53 Mostly Cloudy 72 22.2 68 20 87 87 N 7 11 29.84 1010 7 11 0.00 0.00
1:53 am 01:53 Clear 69 20.6 66 18.9 90 90 N 5 7 29.84 1010 10 16 0.00 0.00
2:16 am 02:16 Mostly Cloudy 69 20.6 65 18.3 87 87 N 6 9 29.84 1010 10 16 0.00 0.00
2:29 am 02:29 Partly Cloudy 69 20.6 65 18.3 87 87 N 7 11 29.84 1010 10 16 0.00 0.00
2:53 am 02:53 Clear 68 20 63 17.2 84 84 NNE 6 9 29.84 1011 10 16 0.00 0.00
3:53 am 03:53 Clear 66 18.9 62 16.7 87 87 N 6 9 29.85 1011 10 16 0.00 0.00
4:53 am 04:53 Mostly Clear 64 17.8 58 14.4 81 81 NNE 5 7 29.85 1011 10 16 0.00 0.00
5:53 am 05:53 Mostly Clear 63 17.2 58 14.4 84 84 NNW 5 7 29.88 1012 9 14 0.00 0.00
6:53 am 06:53 Mostly Sunny 63 17.2 55 12.8 76 76 N 7 11 29.89 1012 10 16 0.00 0.00
7:53 am 07:53 Partly Cloudy 65 18.3 56 13.3 73 73 VRB 3 6 29.91 1013 10 16 0.00 0.00
8:53 am 08:53 Mostly Cloudy with Light Rain 65 18.3 59 15 81 81 N 5 7 29.92 1013 9 14 0.01 0.25
9:45 am 09:45 Mostly Cloudy 68 20 60 15.6 76 76 W 5 7 29.91 1013 10 16 0.00 0.00
9:53 am 09:53 Mostly Cloudy 68 20 60 15.6 76 76 WSW 5 7 29.92 1013 10 16 0.00 0.00
10:35 am 10:35 Partly Cloudy 71 21.7 63 17.2 76 76 Calm 29.90 1013 10 16 0.00 0.00
10:53 am 10:53 Mostly Sunny 72 22.2 63 17.2 73 73 VRB 6 9 29.91 1013 10 16 0.00 0.00
11:53 am 11:53 Mostly Sunny 76 24.4 64 17.8 67 67 W 6 9 29.91 1013 10 16 0.00 0.00
12:53 pm 12:53 Partly Cloudy 77 25 64 17.8 64 64 VRB 3 6 29.91 1013 10 16 0.00 0.00
1:53 pm 13:53 Mostly Sunny 79 26.1 64 17.8 60 60 VRB 6 9 29.90 1013 10 16 0.00 0.00
2:53 pm 14:53 Mostly Sunny 81 27.2 63 17.2 54 54 VRB 5 7 29.88 1012 10 16 0.00 0.00
3:53 pm 15:53 Mostly Cloudy 80 26.7 64 17.8 58 58 VRB 6 9 29.84 1011 10 16 0.00 0.00
4:31 pm 16:31 Mostly Cloudy with Nearby Thunderstorms 79 26.1 63 17.2 58 58 S 8 13 29.81 1009 10 16 0.00 0.00
4:42 pm 16:42 Cloudy with Nearby Thunderstorms 75 23.9 63 17.2 66 66 SSW 22 35 29.85 1011 2 3 0.00 0.00
4:44 pm 16:44 Cloudy with Nearby Thunderstorms 71 21.7 63 17.2 76 76 SW 29 46 29.85 1011 1 1 0.01 0.25
4:50 pm 16:50 Cloudy with Strong Thunderstorms 66 19 63 17 88 88 S 20 31 29.88 1012 0 0 0.21 5.33
4:51 pm 16:51 Cloudy with Strong Thunderstorms 66 18.9 62 16.7 87 87 SSW 17 28 29.89 1012 0 0 0.23 5.84
4:53 pm 16:53 Cloudy with Strong Thunderstorms 67 19.4 63 17.2 87 87 SW 10 17 29.88 1012 1 2 0.07 1.78
5:07 pm 17:07 Cloudy with Nearby Thunderstorms 67 19.4 64 17.8 91 91 Calm 29.87 1012 5 8 0.32 8.13
5:11 pm 17:11 Cloudy with Nearby Thunderstorms 67 19.4 64 17.8 91 91 N 6 9 29.87 1012 7 11 0.32 8.13
5:45 pm 17:45 Mostly Cloudy with Light Rain 69 20.6 64 17.8 84 84 Calm 29.88 1012 8 13 0.36 9.14
5:53 pm 17:53 Mostly Cloudy with Light Rain 69 20.6 64 17.8 84 84 Calm 29.89 1012 8 13 0.37 9.40
6:53 pm 18:53 Mostly Cloudy 69 20.6 65 18.3 87 87 E 6 9 29.89 1012 10 16 0.01 0.25
7:53 pm 19:53 Mostly Cloudy 69 20.6 65 18.3 87 87 SSE 7 11 29.89 1012 10 16 0.00 0.00
8:53 pm 20:53 Mostly Cloudy with Light Rain 70 21.1 66 18.9 87 87 WSW 5 7 29.90 1013 10 16 0.00 0.00
9:13 pm 21:13 Cloudy 69 20.6 66 18.9 90 90 WNW 6 9 29.89 1012 10 16 0.00 0.00
9:26 pm 21:26 Cloudy with Light Rain 69 20.6 66 18.9 90 90 NW 8 13 29.90 1012 10 16 0.00 0.00
9:41 pm 21:41 Cloudy with Heavy Rain 68 20 65 18.3 90 90 NE 9 15 29.90 1012 6 10 0.07 1.78
9:53 pm 21:53 Cloudy with Light Rain 68 20 65 18.3 90 90 NE 9 15 29.91 1013 7 11 0.07 1.78
10:35 pm 22:35 Cloudy with Light Rain 66 18.9 64 17.8 93 93 NNW 5 7 29.91 1013 10 16 0.06 1.52
10:53 pm 22:53 Cloudy 67 19.4 64 17.8 91 91 N 7 11 29.92 1013 10 16 0.06 1.52
11:28 pm 23:28 Cloudy 67 19.4 64 17.8 91 91 N 7 11 29.92 1013 10 16 0.00 0.00
11:50 pm 23:50 Cloudy 66 19 64 18 94 94 NE 10 17 29.92 1013 10 16 0.00 0.00
11:53 pm 23:53 Cloudy 67 19.4 64 17.8 91 91 NE 9 15 29.93 1013 10 16 0.00 0.00

Powered by AerisWeather